EW2839 Weather Reports


Display with metric or nautical units.
time (UTC)temp
F
wind
direction
speed
MPH
gust
MPH
rain 1hr
in
rain 24hr
in
rain mn
in
humidity
%
barometer
mb
20190527044905 62 203 0.0 1.0 0.00 0.00 0.00 62 1012.9
20190527044405 62 203 0.0 0.0 0.00 0.00 0.00 62 1011.9
20190527043905 62 113 0.0 1.0 0.00 0.00 0.00 62 1011.9
20190527043405 62 113 1.0 2.0 0.00 0.00 0.00 63 1011.9
20190527041906 63 91 1.0 1.0 0.00 0.00 0.00 61 1011.9
20190527041405 63 78 1.0 2.0 0.00 0.00 0.00 60 1011.9
20190527040904 63 91 1.0 2.0 0.00 0.00 0.00 59 1011.9
20190527040405 63 77 1.0 2.0 0.00 0.00 0.00 59 1011.9
20190527034904 64 69 1.0 2.0 0.00 0.00 0.00 58 1011.9
20190527034405 65 68 0.0 1.0 0.00 0.00 0.00 57 1011.9
20190527033905 65 69 1.0 1.0 0.00 0.00 0.00 57 1011.9
20190527033404 65 44 0.0 3.0 0.00 0.00 0.00 57 1011.9
20190527031905 66 326 0.0 3.0 0.00 0.00 0.00 56 1011.9
20190527031405 66 20 1.0 2.0 0.00 0.00 0.00 55 1011.9
20190527030904 66 112 1.0 3.0 0.00 0.00 0.00 54 1011.9
20190527030404 67 329 1.0 3.0 0.00 0.00 0.00 53 1011.9
20190527024905 67 301 1.0 2.0 0.00 0.00 0.00 51 1010.9
20190527024404 68 91 0.0 0.0 0.00 0.00 0.00 50 1010.9
20190527023923 68 91 0.0 1.0 0.00 0.00 0.00 49 1010.9
20190527023406 68 112 1.0 5.0 0.00 0.00 0.00 49 1010.9
20190527021904 69 91 1.0 3.0 0.00 0.00 0.00 48 1009.9
20190527021405 69 60 1.0 2.0 0.00 0.00 0.00 47 1009.9
20190527020905 70 79 1.0 3.0 0.00 0.00 0.00 46 1009.9
20190527020404 70 251 1.0 6.0 0.00 0.00 0.00 46 1009.9
20190527014904 70 58 2.0 3.0 0.00 0.00 0.00 48 1009.9
20190527014405 70 315 2.0 3.0 0.00 0.00 0.00 48 1009.9
20190527013904 70 80 2.0 3.0 0.00 0.00 0.00 48 1009.9
20190527013405 70 36 1.0 3.0 0.00 0.00 0.00 47 1009.9
20190527011904 70 29 3.0 8.0 0.00 0.04 0.00 45 1009.9
20190527011404 70 0 4.0 6.0 0.00 0.04 0.00 46 1009.9
20190527010905 70 60 2.0 5.0 0.00 0.04 0.00 46 1009.9
20190527010405 70 293 5.0 8.0 0.00 0.04 0.00 45 1009.9
20190527004904 71 336 3.0 6.0 0.00 0.04 0.00 46 1009.9
20190527004404 71 159 2.0 3.0 0.00 0.04 0.00 45 1009.9
20190527003905 71 277 2.0 6.0 0.00 0.04 0.00 44 1009.9
20190527003404 71 297 2.0 7.0 0.00 0.09 0.00 45 1009.9
20190527001904 72 298 2.0 6.0 0.00 0.12 0.00 42 1009.9
20190527001405 72 319 2.0 6.0 0.00 0.17 0.00 43 1008.9
20190527000906 73 42 2.0 2.0 0.00 0.17 0.00 44 1008.9
20190527000404 73 122 1.0 3.0 0.00 0.17 0.00 44 1008.9
20190526234905 73 271 2.0 7.0 0.00 0.21 0.00 43 1009.9
20190526234405 73 293 3.0 7.0 0.00 0.21 0.00 42 1009.9
20190526233905 73 0 2.0 6.0 0.00 0.21 0.00 42 1009.9
20190526233404 73 5 3.0 8.0 0.00 0.21 0.00 42 1009.9
20190526231905 73 300 3.0 6.0 0.00 0.25 0.00 41 1009.9
20190526231404 73 345 2.0 5.0 0.00 0.25 0.00 43 1009.9
20190526230904 73 268 3.0 6.0 0.00 0.25 0.00 41 1009.9
20190526230404 73 298 1.0 6.0 0.00 0.25 0.00 44 1009.9
20190526224904 72 273 3.0 7.0 0.00 0.29 0.00 43 1009.9
20190526224405 72 279 2.0 6.0 0.00 0.29 0.00 42 1009.9
20190526223905 71 299 3.0 6.0 0.00 0.29 0.00 43 1009.9
20190526223404 72 263 3.0 7.0 0.00 0.29 0.00 44 1009.9
20190526221905 71 292 3.0 6.0 0.00 0.33 0.00 45 1009.9
20190526221405 72 279 3.0 6.0 0.00 0.33 0.00 46 1009.9
20190526220905 72 333 2.0 6.0 0.00 0.33 0.00 48 1009.9
20190526220404 71 32 1.0 6.0 0.00 0.33 0.00 51 1009.9
20190526214904 69 85 1.0 3.0 0.00 0.38 0.00 51 1009.9
20190526214405 69 346 2.0 3.0 0.00 0.38 0.00 51 1009.9
20190526213904 69 330 1.0 2.0 0.00 0.38 0.00 52 1009.9
20190526213404 68 292 1.0 6.0 0.00 0.38 0.00 53 1009.9
20190526211905 68 66 1.0 3.0 0.00 0.42 0.00 51 1009.9
20190526211405 68 50 3.0 5.0 0.00 0.42 0.00 47 1009.9
20190526210904 69 315 2.0 6.0 0.00 0.42 0.00 48 1009.9
20190526210404 70 292 3.0 8.0 0.00 0.42 0.00 45 1009.9
20190526204904 71 29 3.0 5.0 0.00 0.42 0.00 47 1009.9
20190526204405 71 295 3.0 6.0 0.00 0.42 0.00 50 1010.9
20190526203905 70 251 3.0 7.0 0.00 0.42 0.00 47 1010.9
20190526203404 70 276 3.0 6.0 0.00 0.42 0.00 48 1010.9
20190526201905 69 296 3.0 3.0 0.00 0.42 0.00 51 1010.9
20190526201404 68 271 2.0 6.0 0.00 0.42 0.00 53 1010.9
20190526200904 68 226 2.0 3.0 0.00 0.42 0.00 52 1010.9
20190526200405 68 23 3.0 7.0 0.00 0.42 0.00 51 1010.9
20190526194904 67 224 3.0 5.0 0.00 0.42 0.00 52 1010.9
20190526194404 68 281 2.0 3.0 0.00 0.42 0.00 55 1010.9
20190526193904 67 108 3.0 6.0 0.00 0.42 0.00 56 1010.9
20190526193404 67 55 3.0 6.0 0.00 0.42 0.00 54 1010.9
20190526191905 66 32 2.0 3.0 0.00 0.42 0.00 55 1011.9
20190526191404 66 245 3.0 5.0 0.00 0.42 0.00 56 1010.9
20190526190904 65 234 2.0 2.0 0.00 0.42 0.00 56 1010.9
20190526190404 65 0 3.0 6.0 0.00 0.42 0.00 54 1010.9
20190526184904 65 108 1.0 2.0 0.00 0.42 0.00 59 1010.9
20190526184405 64 316 2.0 2.0 0.00 0.42 0.00 60 1010.9
20190526183905 65 336 2.0 3.0 0.00 0.42 0.00 57 1010.9
20190526183404 65 159 1.0 5.0 0.00 0.42 0.00 59 1010.9
20190526181904 62 226 2.0 3.0 0.00 0.42 0.00 62 1011.9
20190526181404 63 226 2.0 2.0 0.00 0.42 0.00 61 1010.9
20190526180905 63 226 2.0 2.0 0.00 0.42 0.00 63 1010.9
20190526180404 62 226 2.0 3.0 0.00 0.42 0.00 64 1010.9
20190526174905 62 159 1.0 5.0 0.00 0.42 0.00 64 1011.9
20190526174405 61 126 4.0 5.0 0.00 0.42 0.00 61 1011.9
20190526173904 62 56 2.0 3.0 0.00 0.42 0.00 65 1011.9
20190526173404 61 113 3.0 3.0 0.00 0.42 0.00 66 1011.9
20190526171904 59 23 0.0 1.0 0.00 0.42 0.00 70 1011.9
20190526171404 59 293 0.0 0.0 0.00 0.42 0.00 71 1011.9
20190526170904 59 203 0.0 0.0 0.00 0.42 0.00 72 1011.9
20190526170404 59 23 2.0 0.0 0.00 0.42 0.00 74 1011.9
20190526164904 57 294 1.0 2.0 0.00 0.42 0.00 74 1011.9
20190526164404 57 4 0.0 2.0 0.00 0.42 0.00 75 1010.9
20190526163904 56 203 0.0 0.0 0.00 0.42 0.00 74 1010.9
20190526163404 57 203 0.0 0.0 0.00 0.42 0.00 76 1010.9
20190526161904 56 226 0.0 0.0 0.00 0.42 0.00 81 1011.9
20190526161404 54 23 0.0 0.0 0.00 0.42 0.00 80 1011.9
20190526160904 55 23 0.0 0.0 0.00 0.42 0.00 80 1011.9
20190526160405 55 23 0.0 0.0 0.00 0.42 0.00 79 1011.9
20190526154904 55 23 1.0 1.0 0.00 0.42 0.00 80 1010.9
20190526154404 55 159 0.0 0.0 0.00 0.42 0.00 79 1011.9
20190526153904 55 159 0.0 0.0 0.00 0.42 0.00 81 1011.9
20190526153404 55 178 1.0 5.0 0.00 0.42 0.00 81 1011.9
20190526151904 56 100 1.0 5.0 0.00 0.42 0.00 81 1010.9
20190526151405 55 46 0.0 1.0 0.00 0.42 0.00 84 1010.9
20190526150905 54 62 1.0 2.0 0.00 0.42 0.00 84 1010.9
20190526150404 54 61 0.0 2.0 0.00 0.42 0.00 85 1010.9
20190526144904 53 87 0.0 2.0 0.00 0.42 0.00 86 1010.9
20190526144404 53 65 1.0 2.0 0.00 0.42 0.00 87 1010.9
20190526143904 54 69 0.0 0.0 0.00 0.42 0.00 86 1010.9
20190526143405 53 69 0.0 1.0 0.00 0.42 0.00 86 1010.9
20190526141904 54 69 0.0 0.0 0.00 0.42 0.00 95 1010.9
20190526141404 53 69 0.0 0.0 0.00 0.42 0.00 98 1010.9
20190526140904 53 69 0.0 0.0 0.00 0.42 0.00 98 1010.9
20190526140404 51 69 0.0 0.0 0.00 0.42 0.00 98 1010.9
20190526134904 50 69 0.0 0.0 0.00 0.42 0.00 97 1010.9
20190526134404 49 69 0.0 0.0 0.00 0.42 0.00 97 1009.9
20190526133904 49 69 0.0 0.0 0.00 0.42 0.00 98 1009.9
20190526133404 49 69 0.0 0.0 0.00 0.42 0.00 98 1009.9
20190526131904 49 69 0.0 0.0 0.00 0.42 0.00 98 1010.9
20190526131404 49 69 0.0 0.0 0.00 0.42 0.00 98 1009.9
20190526130904 49 293 0.0 0.0 0.00 0.42 0.00 98 1009.9
20190526130404 49 356 0.0 0.0 0.00 0.42 0.00 98 1009.9
20190526124904 48 203 0.0 0.0 0.00 0.42 0.00 98 1009.9
20190526124404 48 203 0.0 0.0 0.00 0.42 0.00 98 1009.9
20190526123903 48 203 0.0 0.0 0.00 0.42 0.00 98 1009.9
20190526123404 48 69 0.0 0.0 0.00 0.42 0.00 98 1009.9
20190526121904 48 271 0.0 0.0 0.00 0.42 0.00 98 1009.9
20190526121404 48 277 1.0 1.0 0.00 0.42 0.00 98 1009.9
20190526120904 48 23 1.0 1.0 0.00 0.42 0.00 98 1009.9
20190526120404 48 323 0.0 1.0 0.00 0.42 0.00 98 1009.9
20190526114904 48 350 0.0 1.0 0.00 0.42 0.00 98 1009.9
20190526114405 48 223 0.0 0.0 0.00 0.42 0.00 98 1009.9
20190526113904 48 271 0.0 0.0 0.00 0.42 0.00 98 1009.9
20190526113403 48 309 1.0 1.0 0.00 0.42 0.00 98 1009.9
20190526111904 48 232 0.0 3.0 0.00 0.42 0.00 98 1009.9
20190526111404 48 69 2.0 5.0 0.00 0.42 0.00 98 1009.9
20190526110904 48 316 1.0 2.0 0.00 0.42 0.00 98 1009.9
20190526110404 48 316 0.0 3.0 0.00 0.42 0.00 98 1009.9
20190526104904 48 249 0.0 0.0 0.00 0.42 0.00 98 1008.9
20190526104404 48 249 0.0 0.0 0.00 0.42 0.00 98 1009.9
20190526103904 48 289 0.0 0.0 0.00 0.42 0.00 98 1009.9
20190526103404 48 293 0.0 0.0 0.00 0.42 0.00 98 1009.9
20190526101904 48 271 0.0 0.0 0.00 0.42 0.00 97 1008.9
20190526101404 48 296 0.0 0.0 0.00 0.42 0.00 97 1009.9
20190526100904 48 14 0.0 0.0 0.00 0.42 0.00 98 1009.9
20190526100404 48 46 0.0 0.0 0.00 0.42 0.00 98 1009.9
20190526094904 48 69 0.0 0.0 0.00 0.42 0.00 98 1009.9
20190526094404 48 46 0.0 0.0 0.00 0.42 0.00 98 1009.9
20190526093903 48 271 0.0 0.0 0.00 0.42 0.00 98 1009.9
20190526093404 48 91 0.0 0.0 0.00 0.42 0.00 98 1009.9
20190526091904 48 1 0.0 0.0 0.00 0.42 0.00 98 1009.9
20190526091404 48 23 0.0 0.0 0.00 0.42 0.00 97 1009.9
20190526090903 48 1 0.0 0.0 0.00 0.42 0.00 97 1009.9
20190526090404 48 69 0.0 2.0 0.00 0.42 0.00 97 1009.9
20190526084904 48 293 0.0 0.0 0.00 0.42 0.00 97 1009.9
20190526084404 48 46 0.0 0.0 0.00 0.42 0.00 98 1010.9
20190526083904 48 46 0.0 0.0 0.00 0.42 0.00 97 1010.9
20190526083404 48 316 0.0 2.0 0.00 0.42 0.00 97 1010.9
20190526081904 48 316 0.0 2.0 0.00 0.42 0.00 97 1011.9
20190526081405 48 205 0.0 1.0 0.00 0.42 0.00 97 1010.9
20190526080904 48 69 1.0 2.0 0.00 0.42 0.00 97 1010.9
20190526080404 48 342 0.0 5.0 0.00 0.42 0.00 97 1010.9
20190526074912 48 1 0.0 0.0 0.00 0.42 0.00 97 1010.9
20190526074411 48 346 1.0 2.0 0.00 0.42 0.00 97 1010.9
20190526073912 48 263 1.0 2.0 0.00 0.42 0.00 96 1010.9
20190526073411 48 198 1.0 3.0 0.00 0.42 0.00 96 1010.9
20190526071912 48 314 1.0 1.0 0.00 0.42 0.00 96 1011.9
20190526071411 48 91 0.0 0.0 0.00 0.42 0.00 96 1011.9
20190526070912 48 91 0.0 1.0 0.00 0.42 0.00 96 1011.9
20190526070412 48 308 0.0 0.0 0.00 0.42 0.00 96 1011.9
20190526064912 48 7 0.0 1.0 0.00 0.42 0.42 96 1011.9
20190526064412 48 47 0.0 3.0 0.00 0.42 0.42 96 1011.9
20190526063912 48 118 0.0 2.0 0.00 0.42 0.42 96 1011.9
20190526063412 48 345 0.0 3.0 0.00 0.42 0.42 96 1011.9
20190526061911 48 281 0.0 0.0 0.00 0.42 0.42 95 1011.9
20190526061412 48 263 1.0 3.0 0.00 0.42 0.42 95 1011.9
20190526060911 48 284 0.0 3.0 0.00 0.42 0.42 95 1011.9
20190526060411 48 300 1.0 3.0 0.00 0.42 0.42 95 1011.9
20190526054912 49 306 0.0 2.0 0.00 0.42 0.42 94 1011.9
20190526054411 49 285 0.0 2.0 0.00 0.42 0.42 95 1011.9
20190526053911 49 308 1.0 3.0 0.00 0.42 0.42 94 1011.9
20190526053412 49 293 0.0 0.0 0.00 0.42 0.42 95 1011.9
20190526051912 49 226 0.0 0.0 0.00 0.42 0.42 94 1011.9
20190526051411 49 69 0.0 0.0 0.00 0.42 0.42 94 1011.9
20190526050911 49 69 0.0 0.0 0.00 0.42 0.42 94 1011.9
20190526050413 49 23 0.0 0.0 0.00 0.42 0.42 94 1011.9